Time,TemperatureF,DewpointF,PressureIn,WindDirection,WindDirectionDegrees,WindSpeedMPH,WindSpeedGustMPH,Humidity,HourlyPrecipIn,Conditions,Clouds,dailyrainin,SoftwareType,DateUTC
2013-02-01 00:01:00,33.3,26.5,29.95,WSW,240,12.7,12.7,76,0.00,CLR,OVC,0.00,WeatherDisplay:10.37,2013-02-01 05:01:00,
2013-02-01 00:02:00,33.3,26.5,29.95,WSW,240,12.7,12.7,76,0.00,CLR,OVC,0.00,WeatherDisplay:10.37,2013-02-01 05:02:00,
2013-02-01 00:07:00,33.1,26.3,29.94,WSW,240,12.7,12.7,76,0.00,CLR,OVC,0.00,WeatherDisplay:10.37,2013-02-01 05:07:00,
2013-02-01 00:12:00,32.9,26.2,29.94,WSW,240,12.7,12.7,76,0.00,CLR,OVC,0.00,WeatherDisplay:10.37,2013-02-01 05:12:00,
2013-02-01 00:17:00,32.9,26.2,29.94,WSW,250,12.7,12.7,76,0.00,CLR,OVC,0.00,WeatherDisplay:10.37,2013-02-01 05:17:00,
2013-02-01 00:22:00,32.7,26.3,29.94,WSW,250,12.7,12.7,77,0.00,CLR,OVC,0.00,WeatherDisplay:10.37,2013-02-01 05:22:00,
2013-02-01 00:27:00,32.7,26.6,29.94,WSW,250,12.7,12.7,78,0.00,CLR,OVC,0.00,WeatherDisplay:10.37,2013-02-01 05:27:00,
2013-02-01 00:32:00,32.7,26.6,29.93,WSW,250,12.7,12.7,78,0.00,CLR,OVC,0.00,WeatherDisplay:10.37,2013-02-01 05:32:00,
2013-02-01 00:37:00,32.7,26.6,29.93,WSW,250,12.7,12.7,78,0.00,CLR,OVC,0.00,WeatherDisplay:10.37,2013-02-01 05:37:00,
2013-02-01 00:42:00,32.7,26.6,29.93,WSW,250,12.7,12.7,78,0.00,CLR,OVC,0.00,WeatherDisplay:10.37,2013-02-01 05:42:00,
2013-02-01 00:47:00,32.7,26.9,29.93,WSW,250,12.7,12.7,79,0.00,CLR,OVC,0.00,WeatherDisplay:10.37,2013-02-01 05:47:00,
2013-02-01 00:52:00,32.5,26.7,29.94,WSW,250,12.7,12.7,79,0.00,CLR,OVC,0.00,WeatherDisplay:10.37,2013-02-01 05:52:00,
2013-02-01 00:57:00,32.5,26.7,29.94,WSW,250,12.7,12.7,79,0.00,CLR,OVC,0.00,WeatherDisplay:10.37,2013-02-01 05:57:00,
2013-02-01 01:02:00,32.5,26.7,29.94,WSW,250,12.7,12.7,79,0.00,CLR,OVC,0.00,WeatherDisplay:10.37,2013-02-01 06:02:00,
2013-02-01 01:07:00,32.5,27.1,29.94,WSW,250,12.7,12.7,80,0.00,CLR,OVC,0.00,WeatherDisplay:10.37,2013-02-01 06:07:00,
2013-02-01 01:12:00,32.5,27.1,29.94,WSW,250,12.7,12.7,80,0.00,CLR,OVC,0.00,WeatherDisplay:10.37,2013-02-01 06:12:00,
2013-02-01 01:17:00,32.5,27.1,29.93,WSW,240,12.7,12.7,80,0.00,CLR,OVC,0.00,WeatherDisplay:10.37,2013-02-01 06:17:00,
2013-02-01 01:22:00,32.5,27.1,29.94,WSW,240,10.4,10.4,80,0.00,CLR,OVC,0.00,WeatherDisplay:10.37,2013-02-01 06:22:00,
2013-02-01 01:27:00,32.5,27.4,29.93,WSW,240,10.4,10.4,81,0.00,CLR,OVC,0.00,WeatherDisplay:10.37,2013-02-01 06:27:00,
2013-02-01 01:32:00,32.5,27.4,29.93,WSW,240,10.4,10.4,81,0.00,CLR,OVC,0.00,WeatherDisplay:10.37,2013-02-01 06:32:00,
2013-02-01 01:37:00,32.7,27.5,29.93,WSW,240,10.4,10.4,81,0.00,CLR,OVC,0.00,WeatherDisplay:10.37,2013-02-01 06:37:00,
2013-02-01 01:42:00,32.7,27.5,29.93,WSW,240,10.4,10.4,81,0.00,CLR,OVC,0.00,WeatherDisplay:10.37,2013-02-01 06:42:00,
2013-02-01 01:47:00,32.7,27.8,29.93,WSW,240,10.4,10.4,82,0.00,CLR,OVC,0.00,WeatherDisplay:10.37,2013-02-01 06:47:00,
2013-02-01 01:52:00,32.7,27.5,29.92,WSW,240,10.4,10.4,81,0.00,CLR,OVC,0.00,WeatherDisplay:10.37,2013-02-01 06:52:00,
2013-02-01 01:57:00,33.1,28.2,29.92,WSW,240,10.4,10.4,82,0.00,CLR,OVC,0.00,WeatherDisplay:10.37,2013-02-01 06:57:00,
2013-02-01 02:02:00,33.1,27.9,29.92,WSW,240,10.4,10.4,81,0.00,CLR,OVC,0.00,WeatherDisplay:10.37,2013-02-01 07:02:00,
2013-02-01 02:07:00,33.1,28.2,29.92,WSW,240,10.4,10.4,82,0.00,CLR,OVC,0.00,WeatherDisplay:10.37,2013-02-01 07:07:00,
2013-02-01 02:12:00,33.3,28.4,29.91,WSW,240,10.4,10.4,82,0.00,CLR,OVC,0.00,WeatherDisplay:10.37,2013-02-01 07:12:00,
2013-02-01 02:17:00,33.4,28.5,29.92,WSW,250,12.7,12.7,82,0.00,CLR,OVC,0.00,WeatherDisplay:10.37,2013-02-01 07:17:00,
2013-02-01 02:22:00,33.4,28.5,29.92,WSW,250,12.7,12.7,82,0.00,CLR,OVC,0.00,WeatherDisplay:10.37,2013-02-01 07:22:00,
2013-02-01 02:27:00,33.6,28.7,29.92,WSW,250,12.7,12.7,82,0.00,CLR,OVC,0.00,WeatherDisplay:10.37,2013-02-01 07:27:00,
2013-02-01 02:32:00,33.6,28.4,29.92,WSW,250,12.7,12.7,81,0.00,CLR,OVC,0.00,WeatherDisplay:10.37,2013-02-01 07:32:00,
2013-02-01 02:37:00,34.0,28.8,29.92,WSW,250,12.7,12.7,81,0.00,CLR,OVC,0.00,WeatherDisplay:10.37,2013-02-01 07:37:00,
2013-02-01 02:42:00,34.2,28.6,29.92,WSW,250,12.7,12.7,80,0.00,CLR,OVC,0.00,WeatherDisplay:10.37,2013-02-01 07:42:00,
2013-02-01 02:47:00,34.2,28.6,29.92,WSW,250,12.7,12.7,80,0.00,CLR,OVC,0.00,WeatherDisplay:10.37,2013-02-01 07:47:00,
2013-02-01 02:52:00,34.3,28.8,29.92,WSW,250,12.7,12.7,80,0.00,CLR,OVC,0.00,WeatherDisplay:10.37,2013-02-01 07:52:00,
2013-02-01 02:57:00,34.2,28.6,29.93,WSW,250,12.7,12.7,80,0.00,CLR,OVC,0.00,WeatherDisplay:10.37,2013-02-01 07:57:00,
2013-02-01 03:02:00,34.2,28.6,29.93,WSW,250,12.7,12.7,80,0.00,CLR,OVC,0.00,WeatherDisplay:10.37,2013-02-01 08:02:00,
2013-02-01 03:07:00,34.2,28.6,29.93,WSW,250,12.7,12.7,80,0.00,CLR,OVC,0.00,WeatherDisplay:10.37,2013-02-01 08:07:00,
2013-02-01 03:12:00,34.2,28.6,29.91,WSW,250,12.7,12.7,80,0.00,CLR,OVC,0.00,WeatherDisplay:10.37,2013-02-01 08:12:00,
2013-02-01 03:17:00,34.0,28.5,29.91,WSW,240,28.8,28.8,80,0.00,SCT,OVC,0.00,WeatherDisplay:10.37,2013-02-01 08:17:00,
2013-02-01 03:22:00,33.8,28.3,29.92,WSW,240,28.8,28.8,80,0.00,SCT,OVC,0.00,WeatherDisplay:10.37,2013-02-01 08:22:00,
2013-02-01 03:27:00,33.6,28.1,29.91,WSW,240,28.8,28.8,80,0.00,SCT,OVC,0.00,WeatherDisplay:10.37,2013-02-01 08:27:00,
2013-02-01 03:32:00,33.6,28.1,29.91,WSW,240,28.8,28.8,80,0.00,SCT,OVC,0.00,WeatherDisplay:10.37,2013-02-01 08:32:00,
2013-02-01 03:37:00,33.6,28.4,29.92,WSW,240,28.8,28.8,81,0.00,SCT,OVC,0.00,WeatherDisplay:10.37,2013-02-01 08:37:00,
2013-02-01 03:42:00,33.6,28.4,29.92,WSW,240,28.8,28.8,81,0.00,SCT,OVC,0.00,WeatherDisplay:10.37,2013-02-01 08:42:00,
2013-02-01 03:47:00,33.4,28.2,29.92,WSW,240,28.8,28.8,81,0.00,SCT,OVC,0.00,WeatherDisplay:10.37,2013-02-01 08:47:00,
2013-02-01 03:52:00,33.6,28.4,29.91,WSW,240,28.8,28.8,81,0.00,SCT,OVC,0.00,WeatherDisplay:10.37,2013-02-01 08:52:00,
2013-02-01 03:57:00,33.6,28.4,29.91,WSW,240,28.8,28.8,81,0.00,SCT,OVC,0.00,WeatherDisplay:10.37,2013-02-01 08:57:00,
2013-02-01 04:02:00,33.6,28.4,29.91,WSW,240,28.8,28.8,81,0.00,SCT,OVC,0.00,WeatherDisplay:10.37,2013-02-01 09:02:00,
2013-02-01 04:07:00,33.6,28.4,29.91,WSW,240,28.8,28.8,81,0.00,SCT,OVC,0.00,WeatherDisplay:10.37,2013-02-01 09:07:00,
2013-02-01 04:12:00,34.3,29.1,29.91,WSW,240,28.8,28.8,81,0.00,SCT,OVC,0.00,WeatherDisplay:10.37,2013-02-01 09:12:00,
2013-02-01 04:17:00,34.3,29.1,29.91,West,260,28.8,28.8,81,0.00,CLR,OVC,0.00,WeatherDisplay:10.37,2013-02-01 09:17:00,
2013-02-01 04:22:00,34.7,29.2,29.91,West,260,27.6,27.6,80,0.00,CLR,OVC,0.00,WeatherDisplay:10.37,2013-02-01 09:22:00,
2013-02-01 04:27:00,34.9,29.3,29.91,West,260,27.6,27.6,80,0.00,CLR,OVC,0.00,WeatherDisplay:10.37,2013-02-01 09:27:00,
2013-02-01 04:32:00,35.2,29.7,29.91,West,260,27.6,27.6,80,0.00,CLR,OVC,0.00,WeatherDisplay:10.37,2013-02-01 09:32:00,
2013-02-01 04:37:00,35.4,29.9,29.91,West,260,27.6,27.6,80,0.00,CLR,OVC,0.00,WeatherDisplay:10.37,2013-02-01 09:37:00,
2013-02-01 04:42:00,35.8,29.9,29.90,West,260,27.6,27.6,79,0.00,CLR,OVC,0.00,WeatherDisplay:10.37,2013-02-01 09:42:00,
2013-02-01 04:47:00,35.8,29.9,29.90,West,260,27.6,27.6,79,0.00,CLR,OVC,0.00,WeatherDisplay:10.37,2013-02-01 09:47:00,
2013-02-01 04:52:00,36.0,29.8,29.91,West,260,27.6,27.6,78,0.00,CLR,OVC,0.00,WeatherDisplay:10.37,2013-02-01 09:52:00,
2013-02-01 04:57:00,36.1,29.9,29.91,West,260,27.6,27.6,78,0.00,CLR,OVC,0.00,WeatherDisplay:10.37,2013-02-01 09:57:00,
2013-02-01 05:02:00,36.0,29.8,29.91,West,260,27.6,27.6,78,0.00,CLR,OVC,0.00,WeatherDisplay:10.37,2013-02-01 10:02:00,
2013-02-01 05:07:00,36.0,29.8,29.91,West,260,27.6,27.6,78,0.00,CLR,OVC,0.00,WeatherDisplay:10.37,2013-02-01 10:07:00,
2013-02-01 05:12:00,36.0,29.8,29.91,West,260,27.6,27.6,78,0.00,CLR,OVC,0.00,WeatherDisplay:10.37,2013-02-01 10:12:00,
2013-02-01 05:17:00,36.0,30.1,29.92,West,260,27.6,27.6,79,0.00,CLR,OVC,0.00,WeatherDisplay:10.37,2013-02-01 10:17:00,
2013-02-01 05:22:00,36.1,30.3,29.91,West,260,24.2,24.2,79,0.00,CLR,OVC,0.00,WeatherDisplay:10.37,2013-02-01 10:22:00,
2013-02-01 05:27:00,36.1,30.3,29.92,West,260,24.2,24.2,79,0.00,CLR,OVC,0.00,WeatherDisplay:10.37,2013-02-01 10:27:00,
2013-02-01 05:32:00,36.3,30.1,29.92,West,260,24.2,24.2,78,0.00,CLR,OVC,0.00,WeatherDisplay:10.37,2013-02-01 10:32:00,
2013-02-01 05:37:00,36.3,30.1,29.92,West,260,24.2,24.2,78,0.00,CLR,OVC,0.00,WeatherDisplay:10.37,2013-02-01 10:37:00,
2013-02-01 05:42:00,36.5,30.3,29.93,West,260,24.2,24.2,78,0.00,CLR,OVC,0.00,WeatherDisplay:10.37,2013-02-01 10:42:00,
2013-02-01 05:47:00,36.7,30.5,29.93,West,260,24.2,24.2,78,0.00,CLR,OVC,0.00,WeatherDisplay:10.37,2013-02-01 10:47:00,
2013-02-01 05:52:00,36.9,30.6,29.93,West,260,24.2,24.2,78,0.00,CLR,OVC,0.00,WeatherDisplay:10.37,2013-02-01 10:52:00,
2013-02-01 05:57:00,37.0,30.5,29.93,West,260,24.2,24.2,77,0.00,BKN,OVC,0.00,WeatherDisplay:10.37,2013-02-01 10:57:00,
2013-02-01 06:02:00,37.0,30.2,29.94,West,260,24.2,24.2,76,0.00,CLR,OVC,0.00,WeatherDisplay:10.37,2013-02-01 11:02:00,
2013-02-01 06:07:00,37.0,29.8,29.95,West,260,24.2,24.2,75,0.00,CLR,OVC,0.00,WeatherDisplay:10.37,2013-02-01 11:07:00,
2013-02-01 06:12:00,37.0,29.5,29.95,West,260,24.2,24.2,74,0.00,CLR,OVC,0.00,WeatherDisplay:10.37,2013-02-01 11:12:00,
2013-02-01 06:17:00,37.0,29.5,29.95,West,280,28.8,28.8,74,0.00,SCT,OVC,0.00,WeatherDisplay:10.37,2013-02-01 11:17:00,
2013-02-01 06:22:00,36.9,29.3,29.96,West,280,28.8,28.8,74,0.00,SCT,OVC,0.00,WeatherDisplay:10.37,2013-02-01 11:22:00,
2013-02-01 06:27:00,36.7,29.2,29.96,West,280,28.8,28.8,74,0.00,SCT,OVC,0.00,WeatherDisplay:10.37,2013-02-01 11:27:00,
2013-02-01 06:32:00,36.7,29.2,29.96,West,280,28.8,28.8,74,0.00,SCT,OVC,0.00,WeatherDisplay:10.37,2013-02-01 11:32:00,
2013-02-01 06:37:00,36.5,29.0,29.96,West,280,28.8,28.8,74,0.00,SCT,OVC,0.00,WeatherDisplay:10.37,2013-02-01 11:37:00,
2013-02-01 06:42:00,36.3,28.8,29.97,West,280,28.8,28.8,74,0.00,SCT,OVC,0.00,WeatherDisplay:10.37,2013-02-01 11:42:00,
2013-02-01 06:47:00,36.3,28.8,29.97,West,280,28.8,28.8,74,0.00,SCT,OVC,0.00,WeatherDisplay:10.37,2013-02-01 11:47:00,
2013-02-01 06:52:00,36.3,28.5,29.98,West,280,28.8,28.8,73,0.00,SCT,OVC,0.00,WeatherDisplay:10.37,2013-02-01 11:52:00,
2013-02-01 06:57:00,36.1,28.0,29.98,West,280,28.8,28.8,72,0.00,SCT,OVC,0.00,WeatherDisplay:10.37,2013-02-01 11:57:00,
2013-02-01 07:02:00,36.0,27.5,29.98,West,280,28.8,28.8,71,0.00,SCT,OVC,0.00,WeatherDisplay:10.37,2013-02-01 12:02:00,
2013-02-01 07:07:00,35.8,26.6,29.99,West,280,28.8,28.8,69,0.00,SCT,OVC,0.00,WeatherDisplay:10.37,2013-02-01 12:07:00,
2013-02-01 07:12:00,35.4,26.3,30.00,West,280,28.8,28.8,69,0.00,SCT,OVC,0.00,WeatherDisplay:10.37,2013-02-01 12:12:00,
2013-02-01 07:17:00,35.4,25.9,30.01,West,280,28.8,28.8,68,0.00,FEW,OVC,0.00,WeatherDisplay:10.37,2013-02-01 12:17:00,
2013-02-01 07:22:00,35.1,25.2,30.01,West,280,28.8,28.8,67,0.00,FEW,OVC,0.00,WeatherDisplay:10.37,2013-02-01 12:22:00,
2013-02-01 07:27:00,34.9,24.7,30.02,West,280,28.8,28.8,66,0.00,FEW,OVC,0.00,WeatherDisplay:10.37,2013-02-01 12:27:00,
2013-02-01 07:32:00,34.7,24.5,30.02,West,280,28.8,28.8,66,0.00,FEW,OVC,0.00,WeatherDisplay:10.37,2013-02-01 12:32:00,
2013-02-01 07:37:00,34.3,23.4,30.02,West,280,28.8,28.8,64,0.00,FEW,OVC,0.00,WeatherDisplay:10.37,2013-02-01 12:37:00,
2013-02-01 07:42:00,34.3,23.4,30.03,West,280,28.8,28.8,64,0.00,FEW,OVC,0.00,WeatherDisplay:10.37,2013-02-01 12:42:00,
2013-02-01 07:47:00,34.2,22.9,30.03,West,280,28.8,28.8,63,0.00,FEW,OVC,0.00,WeatherDisplay:10.37,2013-02-01 12:47:00,
2013-02-01 07:52:00,33.8,22.1,30.03,West,280,28.8,28.8,62,0.00,FEW,OVC,0.00,WeatherDisplay:10.37,2013-02-01 12:52:00,
2013-02-01 07:57:00,33.6,21.6,30.04,West,280,28.8,28.8,61,0.00,FEW,OVC,0.00,WeatherDisplay:10.37,2013-02-01 12:57:00,
2013-02-01 08:02:00,33.4,21.8,30.04,West,280,28.8,28.8,62,0.00,FEW,OVC,0.00,WeatherDisplay:10.37,2013-02-01 13:02:00,
2013-02-01 08:07:00,33.4,21.8,30.04,West,280,28.8,28.8,62,0.00,FEW,OVC,0.00,WeatherDisplay:10.37,2013-02-01 13:07:00,
2013-02-01 08:12:00,33.1,21.5,30.05,West,280,28.8,28.8,62,0.00,FEW,OVC,0.00,WeatherDisplay:10.37,2013-02-01 13:12:00,
2013-02-01 08:17:00,33.1,20.7,30.05,WNW,290,28.8,28.8,60,0.00,CLR,OVC,0.00,WeatherDisplay:10.37,2013-02-01 13:17:00,
2013-02-01 08:22:00,32.9,20.5,30.06,WNW,290,16.1,16.1,60,0.00,CLR,OVC,0.00,WeatherDisplay:10.37,2013-02-01 13:22:00,
2013-02-01 08:27:00,32.9,20.1,30.06,WNW,290,16.1,16.1,59,0.00,CLR,OVC,0.00,WeatherDisplay:10.37,2013-02-01 13:27:00,
2013-02-01 08:32:00,32.9,20.1,30.06,WNW,290,16.1,16.1,59,0.00,CLR,OVC,0.00,WeatherDisplay:10.37,2013-02-01 13:32:00,
2013-02-01 08:37:00,33.1,21.1,30.06,WNW,290,16.1,16.1,61,0.00,CLR,OVC,0.00,WeatherDisplay:10.37,2013-02-01 13:37:00,
2013-02-01 08:42:00,33.1,20.3,30.07,WNW,290,16.1,16.1,59,0.00,CLR,OVC,0.00,WeatherDisplay:10.37,2013-02-01 13:42:00,
2013-02-01 08:47:00,33.1,20.3,30.07,WNW,290,16.1,16.1,59,0.00,CLR,OVC,0.00,WeatherDisplay:10.37,2013-02-01 13:47:00,
2013-02-01 08:52:00,33.1,19.5,30.06,WNW,290,16.1,16.1,57,0.00,CLR,OVC,0.00,WeatherDisplay:10.37,2013-02-01 13:52:00,
2013-02-01 08:57:00,32.9,18.1,30.07,WNW,290,16.1,16.1,54,0.00,CLR,OVC,0.00,WeatherDisplay:10.37,2013-02-01 13:57:00,
2013-02-01 09:02:00,32.7,18.3,30.08,WNW,290,16.1,16.1,55,0.00,CLR,OVC,0.00,WeatherDisplay:10.37,2013-02-01 14:02:00,
2013-02-01 09:07:00,32.9,18.5,30.08,WNW,290,16.1,16.1,55,0.00,CLR,OVC,0.00,WeatherDisplay:10.37,2013-02-01 14:07:00,
2013-02-01 09:12:00,33.1,18.2,30.09,WNW,290,16.1,16.1,54,0.00,CLR,OVC,0.00,WeatherDisplay:10.37,2013-02-01 14:12:00,
2013-02-01 09:17:00,33.1,18.2,30.09,WNW,300,28.8,28.8,54,0.00,CLR,OVC,0.00,WeatherDisplay:10.37,2013-02-01 14:17:00,
2013-02-01 09:22:00,33.3,18.4,30.09,WNW,300,28.8,28.8,54,0.00,CLR,OVC,0.00,WeatherDisplay:10.37,2013-02-01 14:22:00,
2013-02-01 09:27:00,33.6,18.7,30.09,WNW,300,28.8,28.8,54,0.00,CLR,OVC,0.00,WeatherDisplay:10.37,2013-02-01 14:27:00,
2013-02-01 09:32:00,33.6,18.7,30.09,WNW,300,28.8,28.8,54,0.00,CLR,OVC,0.00,WeatherDisplay:10.37,2013-02-01 14:32:00,
2013-02-01 09:37:00,33.8,18.5,30.09,WNW,300,28.8,28.8,53,0.00,CLR,OVC,0.00,WeatherDisplay:10.37,2013-02-01 14:37:00,
2013-02-01 09:42:00,34.0,19.1,30.09,WNW,300,28.8,28.8,54,0.00,CLR,OVC,0.00,WeatherDisplay:10.37,2013-02-01 14:42:00,
2013-02-01 09:47:00,34.0,18.6,30.09,WNW,300,28.8,28.8,53,0.00,CLR,OVC,0.00,WeatherDisplay:10.37,2013-02-01 14:47:00,
2013-02-01 09:52:00,34.0,18.2,30.09,WNW,300,28.8,28.8,52,0.00,CLR,OVC,0.00,WeatherDisplay:10.37,2013-02-01 14:52:00,
2013-02-01 09:57:00,34.3,19.0,30.09,WNW,300,28.8,28.8,53,0.00,CLR,OVC,0.00,WeatherDisplay:10.37,2013-02-01 14:57:00,
2013-02-01 10:02:00,34.3,18.5,30.10,WNW,300,28.8,28.8,52,0.00,CLR,OVC,0.00,WeatherDisplay:10.37,2013-02-01 15:02:00,
2013-02-01 10:07:00,34.3,18.1,30.10,WNW,300,28.8,28.8,51,0.00,CLR,OVC,0.00,WeatherDisplay:10.37,2013-02-01 15:07:00,
2013-02-01 10:12:00,34.3,17.6,30.11,WNW,300,28.8,28.8,50,0.00,CLR,OVC,0.00,WeatherDisplay:10.37,2013-02-01 15:12:00,
2013-02-01 10:17:00,34.3,17.6,30.11,NW,310,28.8,28.8,50,0.00,CLR,OVC,0.00,WeatherDisplay:10.37,2013-02-01 15:17:00,
2013-02-01 10:22:00,34.5,18.2,30.11,NW,310,12.7,12.7,51,0.00,CLR,OVC,0.00,WeatherDisplay:10.37,2013-02-01 15:22:00,
2013-02-01 10:27:00,34.9,18.6,30.11,NW,310,12.7,12.7,51,0.00,CLR,OVC,0.00,WeatherDisplay:10.37,2013-02-01 15:27:00,
2013-02-01 10:32:00,34.9,18.1,30.11,NW,310,12.7,12.7,50,0.00,CLR,OVC,0.00,WeatherDisplay:10.37,2013-02-01 15:32:00,
2013-02-01 10:37:00,35.2,18.4,30.12,NW,310,12.7,12.7,50,0.00,CLR,OVC,0.00,WeatherDisplay:10.37,2013-02-01 15:37:00,
2013-02-01 10:42:00,35.2,18.0,30.12,NW,310,12.7,12.7,49,0.00,CLR,OVC,0.00,WeatherDisplay:10.37,2013-02-01 15:42:00,
2013-02-01 10:47:00,35.4,18.1,30.12,NW,310,12.7,12.7,49,0.00,CLR,OVC,0.00,WeatherDisplay:10.37,2013-02-01 15:47:00,
2013-02-01 10:52:00,35.4,18.1,30.13,NW,310,12.7,12.7,49,0.00,CLR,OVC,0.00,WeatherDisplay:10.37,2013-02-01 15:52:00,
2013-02-01 10:57:00,35.8,18.9,30.12,NW,310,12.7,12.7,50,0.00,CLR,OVC,0.00,WeatherDisplay:10.37,2013-02-01 15:57:00,
2013-02-01 11:02:00,36.1,18.8,30.12,NW,310,12.7,12.7,49,0.00,CLR,OVC,0.00,WeatherDisplay:10.37,2013-02-01 16:02:00,
2013-02-01 11:07:00,36.3,19.4,30.13,NW,310,12.7,12.7,50,0.00,CLR,OVC,0.00,WeatherDisplay:10.37,2013-02-01 16:07:00,
2013-02-01 11:12:00,36.5,18.6,30.13,NW,310,12.7,12.7,48,0.00,CLR,OVC,0.00,WeatherDisplay:10.37,2013-02-01 16:12:00,
2013-02-01 11:17:00,36.7,18.8,30.12,WNW,300,25.3,25.3,48,0.00,CLR,OVC,0.00,WeatherDisplay:10.37,2013-02-01 16:17:00,
2013-02-01 11:22:00,37.0,18.7,30.13,WNW,300,25.3,25.3,47,0.00,CLR,OVC,0.00,WeatherDisplay:10.37,2013-02-01 16:22:00,
2013-02-01 11:27:00,37.2,18.8,30.13,WNW,300,25.3,25.3,47,0.00,CLR,OVC,0.00,WeatherDisplay:10.37,2013-02-01 16:27:00,
2013-02-01 11:32:00,37.2,17.3,30.13,WNW,300,25.3,25.3,44,0.00,CLR,OVC,0.00,WeatherDisplay:10.37,2013-02-01 16:32:00,
2013-02-01 11:37:00,37.2,16.2,30.14,WNW,300,25.3,25.3,42,0.00,CLR,OVC,0.00,WeatherDisplay:10.37,2013-02-01 16:37:00,
2013-02-01 11:42:00,37.2,15.6,30.14,WNW,300,25.3,25.3,41,0.00,CLR,OVC,0.00,WeatherDisplay:10.37,2013-02-01 16:42:00,
2013-02-01 11:47:00,37.2,14.5,30.13,WNW,300,25.3,25.3,39,0.00,CLR,OVC,0.00,WeatherDisplay:10.37,2013-02-01 16:47:00,
2013-02-01 11:52:00,37.2,15.6,30.13,WNW,300,25.3,25.3,41,0.00,CLR,OVC,0.00,WeatherDisplay:10.37,2013-02-01 16:52:00,
2013-02-01 11:57:00,37.2,15.1,30.13,WNW,300,25.3,25.3,40,0.00,CLR,OVC,0.00,WeatherDisplay:10.37,2013-02-01 16:57:00,
2013-02-01 12:02:00,37.4,14.1,30.13,WNW,300,25.3,25.3,38,0.00,CLR,OVC,0.00,WeatherDisplay:10.37,2013-02-01 17:02:00,
2013-02-01 12:07:00,37.6,14.8,30.13,WNW,300,25.3,25.3,39,0.00,CLR,OVC,0.00,WeatherDisplay:10.37,2013-02-01 17:07:00,
2013-02-01 12:12:00,37.8,15.0,30.13,WNW,300,25.3,25.3,39,0.00,CLR,OVC,0.00,WeatherDisplay:10.37,2013-02-01 17:12:00,
2013-02-01 12:17:00,37.9,16.3,30.13,NW,320,27.6,27.6,41,0.00,CLR,OVC,0.00,WeatherDisplay:10.37,2013-02-01 17:17:00,
2013-02-01 12:22:00,38.1,14.7,30.13,NW,320,27.6,27.6,38,0.00,CLR,OVC,0.00,WeatherDisplay:10.37,2013-02-01 17:22:00,
2013-02-01 12:27:00,38.5,15.6,30.12,NW,320,27.6,27.6,39,0.00,CLR,OVC,0.00,WeatherDisplay:10.37,2013-02-01 17:27:00,
2013-02-01 12:32:00,38.3,14.3,30.13,NW,320,27.6,27.6,37,0.00,CLR,OVC,0.00,WeatherDisplay:10.37,2013-02-01 17:32:00,
2013-02-01 12:37:00,38.3,14.9,30.12,NW,320,27.6,27.6,38,0.00,CLR,OVC,0.00,WeatherDisplay:10.37,2013-02-01 17:37:00,
2013-02-01 12:42:00,38.5,14.4,30.13,NW,320,27.6,27.6,37,0.00,CLR,OVC,0.00,WeatherDisplay:10.37,2013-02-01 17:42:00,
2013-02-01 12:47:00,38.8,15.4,30.13,NW,320,27.6,27.6,38,0.00,CLR,OVC,0.00,WeatherDisplay:10.37,2013-02-01 17:47:00,
2013-02-01 12:52:00,38.8,14.1,30.13,NW,320,27.6,27.6,36,0.00,CLR,OVC,0.00,WeatherDisplay:10.37,2013-02-01 17:52:00,
2013-02-01 12:57:00,38.8,14.1,30.12,NW,320,27.6,27.6,36,0.00,CLR,OVC,0.00,WeatherDisplay:10.37,2013-02-01 17:57:00,
2013-02-01 13:02:00,38.8,14.7,30.12,NW,320,27.6,27.6,37,0.00,CLR,OVC,0.00,WeatherDisplay:10.37,2013-02-01 18:02:00,
2013-02-01 13:07:00,39.0,15.5,30.12,NW,320,27.6,27.6,38,0.00,CLR,OVC,0.00,WeatherDisplay:10.37,2013-02-01 18:07:00,
2013-02-01 13:12:00,39.0,15.5,30.12,NW,320,27.6,27.6,38,0.00,CLR,OVC,0.00,WeatherDisplay:10.37,2013-02-01 18:12:00,
2013-02-01 13:17:00,39.4,14.6,30.12,NNW,330,27.6,27.6,36,0.00,CLR,OVC,0.00,WeatherDisplay:10.37,2013-02-01 18:17:00,
2013-02-01 13:22:00,39.4,14.6,30.11,NNW,330,27.6,27.6,36,0.00,CLR,OVC,0.00,WeatherDisplay:10.37,2013-02-01 18:22:00,
2013-02-01 13:27:00,39.4,15.2,30.11,NNW,330,27.6,27.6,37,0.00,CLR,OVC,0.00,WeatherDisplay:10.37,2013-02-01 18:27:00,
2013-02-01 13:32:00,39.4,14.0,30.11,NNW,330,27.6,27.6,35,0.00,CLR,OVC,0.00,WeatherDisplay:10.37,2013-02-01 18:32:00,
2013-02-01 13:37:00,39.4,14.0,30.11,NNW,330,27.6,27.6,35,0.00,CLR,OVC,0.00,WeatherDisplay:10.37,2013-02-01 18:37:00,
2013-02-01 13:42:00,39.4,15.2,30.10,NNW,330,27.6,27.6,37,0.00,CLR,OVC,0.00,WeatherDisplay:10.37,2013-02-01 18:42:00,
2013-02-01 13:47:00,39.7,16.2,30.10,NNW,330,27.6,27.6,38,0.00,CLR,OVC,0.00,WeatherDisplay:10.37,2013-02-01 18:47:00,
2013-02-01 13:52:00,39.9,15.7,30.10,NNW,330,27.6,27.6,37,0.00,CLR,OVC,0.00,WeatherDisplay:10.37,2013-02-01 18:52:00,
2013-02-01 13:57:00,39.9,15.7,30.10,NNW,330,27.6,27.6,37,0.00,CLR,OVC,0.00,WeatherDisplay:10.37,2013-02-01 18:57:00,
2013-02-01 14:02:00,40.1,16.5,30.10,NNW,330,27.6,27.6,38,0.00,CLR,OVC,0.00,WeatherDisplay:10.37,2013-02-01 19:02:00,
2013-02-01 14:07:00,40.1,15.2,30.10,NNW,330,27.6,27.6,36,0.00,CLR,OVC,0.00,WeatherDisplay:10.37,2013-02-01 19:07:00,
2013-02-01 14:12:00,40.1,15.9,30.10,NNW,330,27.6,27.6,37,0.00,CLR,OVC,0.00,WeatherDisplay:10.37,2013-02-01 19:12:00,
2013-02-01 14:17:00,40.3,15.4,30.10,WNW,300,27.6,27.6,36,0.00,CLR,OVC,0.00,WeatherDisplay:10.37,2013-02-01 19:17:00,
2013-02-01 14:22:00,40.1,15.2,30.10,WNW,300,23.0,23.0,36,0.00,CLR,OVC,0.00,WeatherDisplay:10.37,2013-02-01 19:22:00,
2013-02-01 14:27:00,40.1,15.2,30.10,WNW,300,23.0,23.0,36,0.00,CLR,OVC,0.00,WeatherDisplay:10.37,2013-02-01 19:27:00,
2013-02-01 14:32:00,40.3,14.1,30.11,WNW,300,23.0,23.0,34,0.00,CLR,OVC,0.00,WeatherDisplay:10.37,2013-02-01 19:32:00,
2013-02-01 14:37:00,40.3,14.8,30.10,WNW,300,23.0,23.0,35,0.00,CLR,OVC,0.00,WeatherDisplay:10.37,2013-02-01 19:37:00,
2013-02-01 14:42:00,40.5,14.3,30.10,WNW,300,23.0,23.0,34,0.00,CLR,OVC,0.00,WeatherDisplay:10.37,2013-02-01 19:42:00,
2013-02-01 14:47:00,40.6,15.1,30.10,WNW,300,23.0,23.0,35,0.00,CLR,OVC,0.00,WeatherDisplay:10.37,2013-02-01 19:47:00,
2013-02-01 14:52:00,40.8,14.6,30.11,WNW,300,23.0,23.0,34,0.00,CLR,OVC,0.00,WeatherDisplay:10.37,2013-02-01 19:52:00,
2013-02-01 14:57:00,40.8,14.6,30.11,WNW,300,23.0,23.0,34,0.00,CLR,OVC,0.00,WeatherDisplay:10.37,2013-02-01 19:57:00,
2013-02-01 15:02:00,40.8,13.2,30.10,WNW,300,23.0,23.0,32,0.00,CLR,OVC,0.00,WeatherDisplay:10.37,2013-02-01 20:02:00,
2013-02-01 15:07:00,41.0,14.1,30.10,WNW,300,23.0,23.0,33,0.00,CLR,OVC,0.00,WeatherDisplay:10.37,2013-02-01 20:07:00,
2013-02-01 15:12:00,40.8,13.2,30.11,WNW,300,23.0,23.0,32,0.00,CLR,OVC,0.00,WeatherDisplay:10.37,2013-02-01 20:12:00,
2013-02-01 15:17:00,40.8,12.5,30.11,NW,310,23.0,23.0,31,0.00,CLR,OVC,0.00,WeatherDisplay:10.37,2013-02-01 20:17:00,
2013-02-01 15:22:00,40.8,11.0,30.10,NW,310,11.5,11.5,29,0.00,CLR,OVC,0.00,WeatherDisplay:10.37,2013-02-01 20:22:00,
2013-02-01 15:27:00,40.8,11.0,30.10,NW,310,11.5,11.5,29,0.00,CLR,OVC,0.00,WeatherDisplay:10.37,2013-02-01 20:27:00,
2013-02-01 15:32:00,40.8,11.0,30.10,NW,310,11.5,11.5,29,0.00,CLR,OVC,0.00,WeatherDisplay:10.37,2013-02-01 20:32:00,
2013-02-01 15:37:00,40.6,12.3,30.10,NW,310,11.5,11.5,31,0.00,CLR,OVC,0.00,WeatherDisplay:10.37,2013-02-01 20:37:00,
2013-02-01 15:42:00,40.8,12.5,30.11,NW,310,11.5,11.5,31,0.00,CLR,OVC,0.00,WeatherDisplay:10.37,2013-02-01 20:42:00,
2013-02-01 15:47:00,40.8,13.2,30.10,NW,310,11.5,11.5,32,0.00,CLR,OVC,0.00,WeatherDisplay:10.37,2013-02-01 20:47:00,
2013-02-01 15:52:00,40.8,13.9,30.10,NW,310,11.5,11.5,33,0.00,CLR,OVC,0.00,WeatherDisplay:10.37,2013-02-01 20:52:00,
2013-02-01 15:57:00,41.2,14.2,30.11,NW,310,11.5,11.5,33,0.00,CLR,OVC,0.00,WeatherDisplay:10.37,2013-02-01 20:57:00,
2013-02-01 16:02:00,41.2,14.9,30.11,NW,310,11.5,11.5,34,0.00,CLR,OVC,0.00,WeatherDisplay:10.37,2013-02-01 21:02:00,
2013-02-01 16:07:00,41.2,13.5,30.10,NW,310,11.5,11.5,32,0.00,CLR,OVC,0.00,WeatherDisplay:10.37,2013-02-01 21:07:00,
2013-02-01 16:12:00,41.2,12.8,30.11,NW,310,11.5,11.5,31,0.00,CLR,OVC,0.00,WeatherDisplay:10.37,2013-02-01 21:12:00,
2013-02-01 16:17:00,41.0,12.6,30.11,West,270,18.4,18.4,31,0.00,CLR,OVC,0.00,WeatherDisplay:10.37,2013-02-01 21:17:00,
2013-02-01 16:22:00,40.8,13.2,30.11,West,270,18.4,18.4,32,0.00,CLR,OVC,0.00,WeatherDisplay:10.37,2013-02-01 21:22:00,
2013-02-01 16:27:00,40.8,13.9,30.11,West,270,18.4,18.4,33,0.00,CLR,OVC,0.00,WeatherDisplay:10.37,2013-02-01 21:27:00,
2013-02-01 16:32:00,40.3,14.8,30.11,West,270,18.4,18.4,35,0.00,CLR,OVC,0.00,WeatherDisplay:10.37,2013-02-01 21:32:00,
2013-02-01 16:37:00,40.1,15.2,30.11,West,270,18.4,18.4,36,0.00,CLR,OVC,0.00,WeatherDisplay:10.37,2013-02-01 21:37:00,
2013-02-01 16:42:00,39.9,15.1,30.11,West,270,18.4,18.4,36,0.00,CLR,OVC,0.00,WeatherDisplay:10.37,2013-02-01 21:42:00,
2013-02-01 16:47:00,39.6,14.8,30.12,West,270,18.4,18.4,36,0.00,CLR,OVC,0.00,WeatherDisplay:10.37,2013-02-01 21:47:00,
2013-02-01 16:52:00,39.4,15.2,30.12,West,270,18.4,18.4,37,0.00,CLR,OVC,0.00,WeatherDisplay:10.37,2013-02-01 21:52:00,
2013-02-01 16:57:00,39.2,15.1,30.12,West,270,18.4,18.4,37,0.00,CLR,OVC,0.00,WeatherDisplay:10.37,2013-02-01 21:57:00,
2013-02-01 17:02:00,39.0,15.5,30.12,West,270,18.4,18.4,38,0.00,CLR,OVC,0.00,WeatherDisplay:10.37,2013-02-01 22:02:00,
2013-02-01 17:07:00,38.8,15.4,30.12,West,270,18.4,18.4,38,0.00,CLR,OVC,0.00,WeatherDisplay:10.37,2013-02-01 22:07:00,
2013-02-01 17:12:00,38.8,15.4,30.12,West,270,18.4,18.4,38,0.00,CLR,OVC,0.00,WeatherDisplay:10.37,2013-02-01 22:12:00,
2013-02-01 17:17:00,38.3,14.9,30.12,West,260,18.4,18.4,38,0.00,CLR,OVC,0.00,WeatherDisplay:10.37,2013-02-01 22:17:00,
2013-02-01 17:22:00,38.1,14.7,30.13,West,260,13.8,13.8,38,0.00,CLR,OVC,0.00,WeatherDisplay:10.37,2013-02-01 22:22:00,
2013-02-01 17:27:00,37.9,15.1,30.13,West,260,13.8,13.8,39,0.00,CLR,OVC,0.00,WeatherDisplay:10.37,2013-02-01 22:27:00,
2013-02-01 17:32:00,37.6,15.4,30.13,West,260,13.8,13.8,40,0.00,CLR,OVC,0.00,WeatherDisplay:10.37,2013-02-01 22:32:00,
2013-02-01 17:37:00,37.4,15.2,30.13,West,260,13.8,13.8,40,0.00,CLR,OVC,0.00,WeatherDisplay:10.37,2013-02-01 22:37:00,
2013-02-01 17:42:00,37.2,15.1,30.13,West,260,13.8,13.8,40,0.00,CLR,OVC,0.00,WeatherDisplay:10.37,2013-02-01 22:42:00,
2013-02-01 17:47:00,37.0,14.9,30.13,West,260,13.8,13.8,40,0.00,CLR,OVC,0.00,WeatherDisplay:10.37,2013-02-01 22:47:00,
2013-02-01 17:52:00,36.7,14.6,30.13,West,260,13.8,13.8,40,0.00,CLR,OVC,0.00,WeatherDisplay:10.37,2013-02-01 22:52:00,
2013-02-01 17:57:00,36.5,14.4,30.13,West,260,13.8,13.8,40,0.00,CLR,OVC,0.00,WeatherDisplay:10.37,2013-02-01 22:57:00,
2013-02-01 18:02:00,36.1,14.7,30.13,West,260,13.8,13.8,41,0.00,CLR,OVC,0.00,WeatherDisplay:10.37,2013-02-01 23:02:00,
2013-02-01 18:07:00,36.0,15.1,30.13,West,260,13.8,13.8,42,0.00,CLR,OVC,0.00,WeatherDisplay:10.37,2013-02-01 23:07:00,
2013-02-01 18:12:00,35.8,14.9,30.13,West,260,13.8,13.8,42,0.00,CLR,OVC,0.00,WeatherDisplay:10.37,2013-02-01 23:12:00,
2013-02-01 18:17:00,35.4,14.6,30.13,West,270,13.8,13.8,42,0.00,CLR,OVC,0.00,WeatherDisplay:10.37,2013-02-01 23:17:00,
2013-02-01 18:22:00,35.4,14.6,30.14,West,270,10.4,10.4,42,0.00,CLR,OVC,0.00,WeatherDisplay:10.37,2013-02-01 23:22:00,
2013-02-01 18:27:00,35.2,14.9,30.14,West,270,10.4,10.4,43,0.00,CLR,OVC,0.00,WeatherDisplay:10.37,2013-02-01 23:27:00,
2013-02-01 18:32:00,34.7,14.5,30.14,West,270,10.4,10.4,43,0.00,CLR,OVC,0.00,WeatherDisplay:10.37,2013-02-01 23:32:00,
2013-02-01 18:37:00,34.5,14.3,30.14,West,270,10.4,10.4,43,0.00,CLR,OVC,0.00,WeatherDisplay:10.37,2013-02-01 23:37:00,
2013-02-01 18:42:00,34.3,14.1,30.14,West,270,10.4,10.4,43,0.00,CLR,OVC,0.00,WeatherDisplay:10.37,2013-02-01 23:42:00,
2013-02-01 18:47:00,34.2,14.5,30.15,West,270,10.4,10.4,44,0.00,CLR,OVC,0.00,WeatherDisplay:10.37,2013-02-01 23:47:00,
2013-02-01 18:52:00,34.0,14.3,30.15,West,270,10.4,10.4,44,0.00,CLR,OVC,0.00,WeatherDisplay:10.37,2013-02-01 23:52:00,
2013-02-01 18:57:00,33.6,14.5,30.15,West,270,10.4,10.4,45,0.00,CLR,OVC,0.00,WeatherDisplay:10.37,2013-02-01 23:57:00,
2013-02-01 19:02:00,33.6,14.5,30.16,West,270,10.4,10.4,45,0.00,CLR,OVC,0.00,WeatherDisplay:10.37,2013-02-02 00:02:00,
2013-02-01 19:07:00,33.4,14.3,30.15,West,270,10.4,10.4,45,0.00,CLR,OVC,0.00,WeatherDisplay:10.37,2013-02-02 00:07:00,
2013-02-01 19:12:00,33.1,14.0,30.15,West,270,10.4,10.4,45,0.00,CLR,OVC,0.00,WeatherDisplay:10.37,2013-02-02 00:12:00,
2013-02-01 19:17:00,33.1,14.0,30.16,West,280,10.4,10.4,45,0.00,CLR,OVC,0.00,WeatherDisplay:10.37,2013-02-02 00:17:00,
2013-02-01 19:22:00,32.9,13.9,30.15,West,280,9.2,9.2,45,0.00,CLR,OVC,0.00,WeatherDisplay:10.37,2013-02-02 00:22:00,
2013-02-01 19:27:00,32.7,14.2,30.16,West,280,9.2,9.2,46,0.00,CLR,OVC,0.00,WeatherDisplay:10.37,2013-02-02 00:27:00,
2013-02-01 19:32:00,32.7,14.7,30.16,West,280,9.2,9.2,47,0.00,CLR,OVC,0.00,WeatherDisplay:10.37,2013-02-02 00:32:00,
2013-02-01 19:37:00,32.5,14.5,30.16,West,280,9.2,9.2,47,0.00,CLR,OVC,0.00,WeatherDisplay:10.37,2013-02-02 00:37:00,
2013-02-01 19:42:00,32.2,14.2,30.16,West,280,9.2,9.2,47,0.00,CLR,OVC,0.00,WeatherDisplay:10.37,2013-02-02 00:42:00,
2013-02-01 19:47:00,32.2,14.7,30.16,West,280,9.2,9.2,48,0.00,CLR,OVC,0.00,WeatherDisplay:10.37,2013-02-02 00:47:00,
2013-02-01 19:52:00,32.2,14.7,30.16,West,280,9.2,9.2,48,0.00,CLR,OVC,0.00,WeatherDisplay:10.37,2013-02-02 00:52:00,
2013-02-01 19:57:00,31.8,13.9,30.17,West,280,9.2,9.2,47,0.00,CLR,OVC,0.00,WeatherDisplay:10.37,2013-02-02 00:57:00,
2013-02-01 20:02:00,31.6,14.2,30.17,West,280,9.2,9.2,48,0.00,CLR,OVC,0.00,WeatherDisplay:10.37,2013-02-02 01:02:00,
2013-02-01 20:07:00,31.6,14.2,30.17,West,280,9.2,9.2,48,0.00,CLR,OVC,0.00,WeatherDisplay:10.37,2013-02-02 01:07:00,
2013-02-01 20:12:00,31.3,13.8,30.17,West,280,9.2,9.2,48,0.00,CLR,OVC,0.00,WeatherDisplay:10.37,2013-02-02 01:12:00,
2013-02-01 20:17:00,31.1,14.1,30.17,WNW,300,9.2,9.2,49,0.00,CLR,OVC,0.00,WeatherDisplay:10.37,2013-02-02 01:17:00,
2013-02-01 20:22:00,30.9,14.0,30.17,WNW,300,5.8,5.8,49,0.00,CLR,OVC,0.00,WeatherDisplay:10.37,2013-02-02 01:22:00,
2013-02-01 20:27:00,30.7,14.3,30.17,WNW,300,5.8,5.8,50,0.00,CLR,OVC,0.00,WeatherDisplay:10.37,2013-02-02 01:27:00,
2013-02-01 20:32:00,30.7,14.7,30.17,WNW,300,5.8,5.8,51,0.00,CLR,OVC,0.00,WeatherDisplay:10.37,2013-02-02 01:32:00,
2013-02-01 20:37:00,30.6,14.1,30.17,WNW,300,5.8,5.8,50,0.00,CLR,OVC,0.00,WeatherDisplay:10.37,2013-02-02 01:37:00,
2013-02-01 20:42:00,30.4,14.4,30.17,WNW,300,5.8,5.8,51,0.00,CLR,OVC,0.00,WeatherDisplay:10.37,2013-02-02 01:42:00,
2013-02-01 20:47:00,30.4,14.8,30.17,WNW,300,5.8,5.8,52,0.00,CLR,OVC,0.00,WeatherDisplay:10.37,2013-02-02 01:47:00,
2013-02-01 20:52:00,30.2,14.7,30.17,WNW,300,5.8,5.8,52,0.00,CLR,OVC,0.00,WeatherDisplay:10.37,2013-02-02 01:52:00,
2013-02-01 20:57:00,30.2,14.7,30.16,WNW,300,5.8,5.8,52,0.00,CLR,OVC,0.00,WeatherDisplay:10.37,2013-02-02 01:57:00,
2013-02-01 21:02:00,30.0,14.5,30.16,WNW,300,5.8,5.8,52,0.00,CLR,OVC,0.00,WeatherDisplay:10.37,2013-02-02 02:02:00,
2013-02-01 21:07:00,30.0,14.5,30.16,WNW,300,5.8,5.8,52,0.00,CLR,OVC,0.00,WeatherDisplay:10.37,2013-02-02 02:07:00,
2013-02-01 21:12:00,30.0,14.9,30.16,WNW,300,5.8,5.8,53,0.00,CLR,OVC,0.00,WeatherDisplay:10.37,2013-02-02 02:12:00,
2013-02-01 21:17:00,30.0,15.4,30.16,NW,320,8.1,8.1,54,0.00,CLR,OVC,0.00,WeatherDisplay:10.37,2013-02-02 02:17:00,
2013-02-01 21:22:00,30.0,15.4,30.16,NW,320,8.1,8.1,54,0.00,CLR,OVC,0.00,WeatherDisplay:10.37,2013-02-02 02:22:00,
2013-02-01 21:27:00,30.0,15.4,30.17,NW,320,8.1,8.1,54,0.00,CLR,OVC,0.00,WeatherDisplay:10.37,2013-02-02 02:27:00,
2013-02-01 21:32:00,29.8,15.6,30.17,NW,320,8.1,8.1,55,0.00,CLR,OVC,0.00,WeatherDisplay:10.37,2013-02-02 02:32:00,
2013-02-01 21:37:00,29.8,15.6,30.17,NW,320,8.1,8.1,55,0.00,CLR,OVC,0.00,WeatherDisplay:10.37,2013-02-02 02:37:00,
2013-02-01 21:42:00,29.7,15.0,30.16,NW,320,8.1,8.1,54,0.00,CLR,OVC,0.00,WeatherDisplay:10.37,2013-02-02 02:42:00,
2013-02-01 21:47:00,29.5,15.3,30.16,NW,320,8.1,8.1,55,0.00,CLR,OVC,0.00,WeatherDisplay:10.37,2013-02-02 02:47:00,
2013-02-01 21:52:00,29.3,15.1,30.16,NW,320,8.1,8.1,55,0.00,CLR,OVC,0.00,WeatherDisplay:10.37,2013-02-02 02:52:00,
2013-02-01 21:57:00,29.1,14.9,30.16,NW,320,8.1,8.1,55,0.00,CLR,OVC,0.00,WeatherDisplay:10.37,2013-02-02 02:57:00,
2013-02-01 22:02:00,29.1,14.9,30.16,NW,320,8.1,8.1,55,0.00,CLR,OVC,0.00,WeatherDisplay:10.37,2013-02-02 03:02:00,
2013-02-01 22:07:00,29.1,14.9,30.17,NW,320,8.1,8.1,55,0.00,CLR,OVC,0.00,WeatherDisplay:10.37,2013-02-02 03:07:00,
2013-02-01 22:12:00,28.9,14.8,30.17,NW,320,8.1,8.1,55,0.00,CLR,OVC,0.00,WeatherDisplay:10.37,2013-02-02 03:12:00,
2013-02-01 22:17:00,28.9,14.8,30.17,NNW,330,8.1,8.1,55,0.00,CLR,OVC,0.00,WeatherDisplay:10.37,2013-02-02 03:17:00,
2013-02-01 22:22:00,28.8,14.6,30.16,NNW,330,3.5,3.5,55,0.00,CLR,OVC,0.00,WeatherDisplay:10.37,2013-02-02 03:22:00,
2013-02-01 22:27:00,28.8,14.6,30.17,NNW,330,3.5,3.5,55,0.00,CLR,OVC,0.00,WeatherDisplay:10.37,2013-02-02 03:27:00,
2013-02-01 22:32:00,28.6,14.4,30.17,NNW,330,3.5,3.5,55,0.00,CLR,OVC,0.00,WeatherDisplay:10.37,2013-02-02 03:32:00,
2013-02-01 22:37:00,28.6,14.4,30.17,NNW,330,3.5,3.5,55,0.00,CLR,OVC,0.00,WeatherDisplay:10.37,2013-02-02 03:37:00,
2013-02-01 22:42:00,28.6,14.9,30.17,NNW,330,3.5,3.5,56,0.00,CLR,OVC,0.00,WeatherDisplay:10.37,2013-02-02 03:42:00,
2013-02-01 22:47:00,28.4,14.7,30.17,NNW,330,3.5,3.5,56,0.00,CLR,OVC,0.00,WeatherDisplay:10.37,2013-02-02 03:47:00,
2013-02-01 22:52:00,28.2,14.9,30.17,NNW,330,3.5,3.5,57,0.00,CLR,OVC,0.00,WeatherDisplay:10.37,2013-02-02 03:52:00,
2013-02-01 22:57:00,28.2,14.9,30.18,NNW,330,3.5,3.5,57,0.00,CLR,OVC,0.00,WeatherDisplay:10.37,2013-02-02 03:57:00,
2013-02-01 23:02:00,28.2,14.9,30.17,NNW,330,3.5,3.5,57,0.00,CLR,OVC,0.00,WeatherDisplay:10.37,2013-02-02 04:02:00,
2013-02-01 23:07:00,28.0,14.8,30.17,NNW,330,3.5,3.5,57,0.00,CLR,OVC,0.00,WeatherDisplay:10.37,2013-02-02 04:07:00,
2013-02-01 23:12:00,28.0,14.8,30.17,NNW,330,3.5,3.5,57,0.00,CLR,OVC,0.00,WeatherDisplay:10.37,2013-02-02 04:12:00,
2013-02-01 23:17:00,28.0,14.8,30.18,NW,320,3.5,3.5,57,0.00,CLR,OVC,0.00,WeatherDisplay:10.37,2013-02-02 04:17:00,
2013-02-01 23:22:00,28.0,15.2,30.17,NW,320,3.5,3.5,58,0.00,CLR,OVC,0.00,WeatherDisplay:10.37,2013-02-02 04:22:00,
2013-02-01 23:27:00,27.7,14.8,30.17,NW,320,3.5,3.5,58,0.00,CLR,OVC,0.00,WeatherDisplay:10.37,2013-02-02 04:27:00,
2013-02-01 23:32:00,27.7,14.8,30.17,NW,320,3.5,3.5,58,0.00,CLR,OVC,0.00,WeatherDisplay:10.37,2013-02-02 04:32:00,
2013-02-01 23:37:00,27.7,14.8,30.16,NW,320,3.5,3.5,58,0.00,CLR,OVC,0.00,WeatherDisplay:10.37,2013-02-02 04:37:00,
2013-02-01 23:42:00,27.7,14.8,30.16,NW,320,3.5,3.5,58,0.00,CLR,OVC,0.00,WeatherDisplay:10.37,2013-02-02 04:42:00,
2013-02-01 23:47:00,27.5,14.6,30.16,NW,320,3.5,3.5,58,0.00,CLR,OVC,0.00,WeatherDisplay:10.37,2013-02-02 04:47:00,
2013-02-01 23:52:00,27.3,14.5,30.16,NW,320,3.5,3.5,58,0.00,CLR,OVC,0.00,WeatherDisplay:10.37,2013-02-02 04:52:00,
2013-02-01 23:57:00,27.1,14.3,30.16,NW,320,3.5,3.5,58,0.00,CLR,OVC,0.00,WeatherDisplay:10.37,2013-02-02 04:57:00,